sat.trackr.live / text

‹ back to catalog

STARLINK-11509 [DTC]

NORAD 63059 · 2025-035H

PAYLOAD ACTIVE UNKNOWN

§ Identity

Operator
Country
US
Launch date
2025-02-21
Launch site
AFETR
Launch vehicle
Mass (kg)
RCS (m²)

Purposes: comms

External: N2YO · Heavens-Above · Gunter

§ Orbital elements

Epoch: 2026-09-21T01:14:08.531232Z

Period
91.67 min
Inclination
42.9997°
Eccentricity
0.0001309
Mean motion
15.70848917 rev/d
Perigee alt
355.6 km
Apogee alt
357.4 km
Semi-major
6,734.6 km
B*
1.1651e-3
RAAN
277.9939°
Arg perigee
264.3536°
Mean anomaly
95.7182°
Rev number
9,182

§ Raw data

STARLINK-11509 [DTC]1 63059U 25035H   26264.05148763  .00151873  00000+0  11651-2 0  99922 63059  42.9997 277.9939 0001309 264.3536  95.7182 15.70848917 91825

JSON: /api/v1/satellites/63059 · /tle

For live sub-satellite position, see the globe view (requires WebGL).

§ Visibility from observer

Set your observer location to see the next 7 days of passes ≥ 10°. The values pass through the URL so the page stays shareable.

No JS? Fill the form by hand. The geolocation button needs JavaScript.